User: anonymous   Login
Location: Unspecified
(39.0670°S, 0.0000°E)
Time: 17:08:07
(UTC+00:00)
Language:

DUCHIFAT 1 - Orbit

View from above orbital plane
View from above orbital plane
View from above satellite
View from above satellite

Ground track
Ground track

The orbit data is extracted from the following two-line orbital elements,

1 40021U 14033M   19232.77705251  .00000095  00000-0  15519-4 0  9998
2 40021  97.9226 157.5790 0012220 195.9775 164.1059 14.90661185280948
Epoch (UTC): 20 August 2019 18:38:57
Eccentricity: 0.0012220
inclination: 97.9226°
perigee height: 587 km
apogee height: 604 km
right ascension of ascending node: 157.5790°
argument of perigee: 195.9775°
revolutions per day: 14.90661185
mean anomaly at epoch: 164.1059°
orbit number at epoch: 28094

The dashed part of the orbit path shows where the satellite is in the earth's shadow,  

DLR